リニア彗星

C/2003 U1 ( LINEAR )

English version
Home page
Total 6,336 html files since Dec. 4, 1995
Updated on February 11, 2004

---------------------------------------------------------------------

・ プロフィール

発見日 2003年10月19日
発見光度 18.2等
発見者 Lincoln Laboratory Near-Earth Asteroid Research project

・ 軌道要素

Epoch 2003 Nov. 17.0 TT = JDT 2452960.5
T 2003 Nov. 3.39812 TT                                  MPC
q   1.7957083            (2000.0)            P               Q
n   0.00900613     Peri.  278.38389     +0.69288375     +0.70262268
a  22.8793614      Node   322.76305     +0.72065570     -0.66738728
e   0.9215141      Incl.  164.47463     +0.02382144     -0.24681086
P 109.44

・ 星図

・ 光度変化

        m1 = 14.1 + 5 logΔ + 10.0 log r

---------------------------------------------------------------------

軌道要素はM.P.E.C. 2004-A10に掲載されたものです。
星図は StellaNavigator Ver.2.0 for Windows (アストロアーツ 編著 / アスキー出版局刊) で作成したものです。
光度グラフはComet for Windowsで作成したものです。

---------------------------------------------------------------------

Copyright(C) 1995-2008 Seiichi Yoshida (comet@aerith.net). All rights reserved.